EA3ANS-1 Weather Reports


Display with metric or nautical units.
time (UTC)temp
F
wind
direction
speed
MPH
gust
MPH
rain 1hr
in
rain 24hr
in
rain mn
in
humidity
%
barometer
mb
20260507133246 68 129 9.0 7.0 0.00 0.00 0.00 1012.2
20260507132248 69 141 9.0 5.0 0.00 0.00 0.00 1012.2
20260507131245 68 149 7.0 8.0 0.00 0.00 0.00 1012.2
20260507130242 68 136 9.0 4.0 0.00 0.00 0.00 1012.3
20260507125245 69 142 8.0 14.0 0.00 0.00 0.00 1012.5
20260507124247 69 160 9.0 9.0 0.00 0.00 0.00 1012.6
20260507123246 69 136 10.0 9.0 0.00 0.00 0.00 1012.5
20260507122249 69 176 10.0 6.0 0.00 0.00 0.00 1012.6
20260507121247 69 124 11.0 8.0 0.00 0.00 0.00 1012.6
20260507120250 70 153 8.0 11.0 0.00 0.00 0.00 1012.7
20260507115247 71 127 6.0 7.0 0.00 0.00 0.00 1012.7
20260507114250 70 183 6.0 7.0 0.00 0.00 0.00 1012.8
20260507113244 70 136 7.0 5.0 0.00 0.00 0.00 1012.8
20260507112241 69 114 8.0 5.0 0.00 0.00 0.00 1013.1
20260507111241 68 180 8.0 7.0 0.00 0.00 0.00 1013.2
20260507110243 68 203 6.0 10.0 0.00 0.00 0.00 1013.4
20260507105243 67 18 0.0 2.0 0.00 0.00 0.00 1013.4
20260507104240 68 114 7.0 7.0 0.00 0.00 0.00 1013.5
20260507103241 67 195 3.0 5.0 0.00 0.00 0.00 1013.7
20260507102241 68 136 5.0 4.0 0.00 0.00 0.00 1013.5
20260507101242 67 149 6.0 7.0 0.00 0.00 0.00 1013.9
20260507100245 65 135 8.0 5.0 0.00 0.00 0.00 1014.0
20260507095245 65 73 1.0 1.0 0.00 0.00 0.00 1013.9
20260507094248 66 120 6.0 3.0 0.00 0.00 0.00 1014.0
20260507093242 64 45 3.0 2.0 0.00 0.00 0.00 1014.2
20260507092240 65 188 5.0 3.0 0.00 0.00 0.00 1014.1
20260507091240 64 208 5.0 5.0 0.00 0.00 0.00 1014.2
20260507090243 63 82 2.0 1.0 0.00 0.00 0.00 1013.9
20260507085245 62 195 3.0 3.0 0.00 0.00 0.00 1013.9
20260507084248 62 187 2.0 4.0 0.00 0.00 0.00 1014.1
20260507083250 62 156 3.0 5.0 0.00 0.00 0.00 1014.0
20260507082247 63 174 3.0 2.0 0.00 0.00 0.00 1014.1
20260507081243 62 165 1.0 0.0 0.00 0.00 0.00 1014.2
20260507080245 61 150 0.0 0.0 0.00 0.00 0.00 1014.2
20260507075241 60 167 0.0 0.0 0.00 0.00 0.00 1014.3
20260507074241 59 243 2.0 1.0 0.00 0.00 0.00 1014.5
20260507073242 57 322 0.0 0.0 0.00 0.00 0.00 1014.5
20260507072245 57 322 0.0 0.0 0.00 0.00 0.00 1014.5
20260507071242 55 328 3.0 4.0 0.00 0.00 0.00 1014.6
20260507070244 54 8 3.0 1.0 0.00 0.00 0.00 1014.5
20260507065241 54 304 2.0 2.0 0.00 0.00 0.00 1014.4
20260507064244 54 335 1.0 1.0 0.00 0.00 0.00 1014.3
20260507063243 54 111 0.0 0.0 0.00 0.00 0.00 1014.2
20260507062246 53 134 3.0 3.0 0.00 0.00 0.00 1014.0
20260507061248 54 83 1.0 0.0 0.00 0.00 0.00 1013.9
20260507060246 53 49 0.0 1.0 0.00 0.00 0.00 1013.9
20260507055241 52 357 5.0 2.0 0.00 0.00 0.00 1013.8
20260507054242 52 41 0.0 0.0 0.00 0.00 0.00 1013.6
20260507053243 51 41 0.0 0.0 0.00 0.00 0.00 1013.6
20260507052245 51 350 3.0 4.0 0.00 0.00 0.00 1013.5
20260507051242 50 340 3.0 4.0 0.00 0.00 0.00 1013.6
20260507050244 50 107 0.0 0.0 0.00 0.00 0.00 1013.5
20260507045242 50 107 0.0 0.0 0.00 0.00 0.00 1013.5
20260507044241 51 293 0.0 0.0 0.00 0.00 0.00 1013.5
20260507043243 51 293 0.0 0.0 0.00 0.00 0.00 1013.5
20260507042245 51 288 4.0 0.0 0.00 0.00 0.00 1013.4
20260507041241 51 322 0.0 0.0 0.00 0.00 0.00 1013.4
20260507040244 51 3 0.0 0.0 0.00 0.00 0.00 1013.5
20260507035246 51 312 5.0 5.0 0.00 0.00 0.00 1013.5
20260507034243 51 314 5.0 3.0 0.00 0.00 0.00 1013.4
20260507033246 51 305 4.0 4.0 0.00 0.00 0.00 1013.5
20260507032244 51 34 0.0 0.0 0.00 0.00 0.00 1013.6
20260507031247 51 34 0.0 0.0 0.00 0.00 0.00 1013.6
20260507030247 50 121 3.0 2.0 0.00 0.00 0.00 1013.6
20260507025249 52 163 0.0 0.0 0.00 0.00 0.00 1013.5
20260507024252 52 163 0.0 0.0 0.00 0.00 0.00 1013.4
20260507023249 52 163 0.0 0.0 0.00 0.00 0.00 1013.4
20260507022245 52 163 0.0 0.0 0.00 0.00 0.00 1013.3
20260507021247 53 194 0.0 0.0 0.00 0.00 0.00 1013.3
20260507020241 52 194 0.0 0.0 0.00 0.00 0.00 1013.3
20260507015243 53 194 0.0 0.0 0.00 0.00 0.00 1013.3
20260507014242 53 194 0.0 0.0 0.00 0.00 0.00 1013.5
20260507013245 53 194 0.0 0.0 0.00 0.00 0.00 1013.5
20260507012242 53 194 0.0 0.0 0.00 0.00 0.00 1013.4
20260507011245 53 194 0.0 0.0 0.00 0.00 0.00 1013.4
20260507010247 53 194 0.0 0.0 0.00 0.00 0.00 1013.4
20260507005245 53 194 0.0 0.0 0.00 0.00 0.00 1013.5
20260507004247 52 194 0.0 0.0 0.00 0.00 0.00 1013.6
20260507003249 53 194 0.0 0.0 0.00 0.00 0.00 1013.7
20260507002251 54 194 0.0 0.0 0.00 0.00 0.00 1013.6
20260507001242 53 194 0.0 0.0 0.00 0.00 0.00 1013.8
20260507000241 54 194 0.0 0.0 0.00 0.00 0.00 1013.8
20260506235243 54 194 0.0 0.0 0.00 0.00 0.00 1013.6
20260506234241 54 193 3.0 2.0 0.00 0.00 0.00 1013.7
20260506233241 55 207 0.0 0.0 0.00 0.00 0.00 1013.7
20260506232242 55 207 0.0 0.0 0.00 0.00 0.00 1013.7
20260506231244 55 207 0.0 0.0 0.00 0.00 0.00 1013.7
20260506230241 56 217 0.0 0.0 0.00 0.00 0.00 1013.7
20260506225241 56 217 0.0 0.0 0.00 0.00 0.00 1013.6
20260506224244 56 217 0.0 0.0 0.00 0.00 0.00 1013.5
20260506223246 57 217 0.0 0.0 0.00 0.00 0.00 1013.5
20260506222244 56 217 0.0 0.0 0.00 0.00 0.00 1013.5
20260506221246 57 217 0.0 0.0 0.00 0.00 0.00 1013.5
20260506220244 58 217 0.0 0.0 0.00 0.00 0.00 1013.4
20260506215240 58 217 0.0 0.0 0.00 0.17 0.00 1013.4
20260506214243 58 217 0.0 0.0 0.00 0.17 0.00 1013.4
20260506213241 58 217 0.0 0.0 0.00 0.17 0.00 1013.4
20260506212241 58 217 0.0 0.0 0.00 0.17 0.00 1013.4
20260506211241 59 217 0.0 0.0 0.00 0.17 0.00 1013.3
20260506210242 59 165 2.0 2.0 0.00 0.17 0.00 1013.2
20260506205244 60 115 2.0 2.0 0.00 0.17 0.00 1013.1
20260506204241 59 37 0.0 0.0 0.00 0.17 0.00 1013.0
20260506203242 59 35 2.0 1.0 0.00 0.17 0.00 1012.8
20260506202241 59 37 2.0 0.0 0.00 0.17 0.00 1012.7
20260506201242 59 58 4.0 3.0 0.00 0.17 0.00 1012.6
20260506200243 61 52 0.0 1.0 0.00 0.17 0.00 1012.4
20260506195242 60 31 0.0 0.0 0.00 0.17 0.00 1012.3
20260506194244 61 80 3.0 0.0 0.00 0.17 0.00 1012.1
20260506193241 62 80 1.0 1.0 0.00 0.17 0.00 1011.9
20260506192241 62 80 2.0 1.0 0.00 0.17 0.00 1011.7
20260506191242 62 84 2.0 2.0 0.00 0.17 0.00 1011.6
20260506190241 63 135 3.0 4.0 0.00 0.17 0.00 1011.4
20260506185242 63 169 4.0 7.0 0.00 0.17 0.00 1011.3
20260506184244 64 127 3.0 3.0 0.00 0.17 0.00 1011.1
20260506183246 65 128 4.0 2.0 0.00 0.17 0.00 1011.0
20260506182241 65 166 7.0 3.0 0.00 0.17 0.00 1010.7
20260506181241 65 120 7.0 7.0 0.00 0.17 0.00 1010.7
20260506180242 66 115 7.0 7.0 0.00 0.17 0.00 1010.5
20260506175245 67 145 6.0 4.0 0.00 0.17 0.00 1010.3
20260506174244 67 117 4.0 5.0 0.00 0.17 0.00 1010.3
20260506173246 68 131 4.0 4.0 0.00 0.17 0.00 1010.2
20260506172249 69 113 2.0 3.0 0.00 0.17 0.00 1010.1
20260506171245 67 128 4.0 5.0 0.00 0.17 0.00 1010.0
20260506170244 68 135 5.0 5.0 0.00 0.17 0.00 1010.0
20260506165244 67 143 7.0 9.0 0.00 0.17 0.00 1010.0
20260506164244 67 132 7.0 5.0 0.00 0.17 0.00 1009.9
20260506163244 68 118 6.0 8.0 0.00 0.17 0.00 1009.8
20260506162246 69 158 7.0 8.0 0.00 0.17 0.00 1009.8
20260506161248 68 155 9.0 4.0 0.00 0.17 0.00 1009.6
20260506160246 69 70 8.0 8.0 0.00 0.17 0.00 1009.6
20260506155249 71 138 7.0 7.0 0.00 0.17 0.00 1009.6
20260506154244 71 163 7.0 11.0 0.00 0.17 0.00 1009.6
20260506153244 72 335 2.0 3.0 0.00 0.17 0.00 1009.6
20260506152245 73 134 3.0 4.0 0.00 0.17 0.00 1009.7
20260506151247 73 250 5.0 6.0 0.00 0.17 0.00 1009.7
20260506150250 73 253 2.0 3.0 0.00 0.17 0.00 1009.8
20260506145246 72 235 8.0 10.0 0.00 0.17 0.00 1009.9
20260506144249 72 142 2.0 0.0 0.00 0.17 0.00 1009.9
20260506143243 71 236 9.0 9.0 0.00 0.17 0.00 1010.1
20260506142245 71 252 7.0 8.0 0.00 0.17 0.00 1010.3
20260506141244 72 283 3.0 4.0 0.00 0.17 0.00 1010.3
20260506140245 70 284 9.0 4.0 0.00 0.17 0.00 1010.5
20260506135248 70 228 4.0 3.0 0.00 0.17 0.00 1010.4
20260506134244 70 242 3.0 7.0 0.00 0.17 0.00 1010.7